Location: Gerlach
(40.6516°N, 119.3568°W)
Time: 06:57:41
(UTC-07:00)

SR - Pass Details

Date: 16 February 2023
Orbit: 583 x 866 km, 66.7° (Epoch: 26 March)

Event Time Altitude Azimuth Distance (km) Brightness Sun altitude
Rises 19:23:27 0° 338° (NNW) 2,824 ? -21.5°
Reaches altitude 10° 19:25:52 10° 347° (NNW) 1,908 ? -21.9°
Enters shadow 19:28:15 26° 13° (NNE) 1,149 ? -22.4°
